Flag for U.S.A. Weather past 2 weeks in Baltimore, Maryland, U.S.A.

Now
78 °F

Scattered clouds.


Feels Like: 79 °F
Forecast: 59 / 78 °F
Wind: 6 mph from South

Location: Baltimore-Washington International Airport

Current Time: Sep 20, 2014 at 4:31:42 PM

Latest Report: Sep 20, 2014 at 3:54 PM


Visibility: 10 mi

Pressure: 30.12 "Hg

Humidity: 39%

Dew point: 51 °F

Location of BaltimoreLocation

Historic Weather in Baltimore — Graph

°F

Baltimore temperature yesterday

Maximum temperature yesterday: 73 °F (at 2:54 PM)
Minimum temperature yesterday: 55 °F (at 1:54 AM)
Average temperature yesterday: 64 °F

Past Weeks' High & Low Weather Summary

 TemperatureHumidityPressure
High92 °F (Sep 6, 2:54 PM)97% (Sep 6, 10:54 PM)30.32 "Hg (Sep 6, 10:54 PM)
Low50 °F (Sep 14, 5:54 AM)35% (Sep 7, 3:54 PM)29.85 "Hg (Sep 6, 4:54 PM)
Average68 °F72%30.09 "Hg
* Reported Sep 5 2:54 PM — Sep 20 2:54 PM, Baltimore, Weather by CustomWeather, © 2014

Note: Actual official high and low records may vary slightly from our data, if they occured in-between our weather recording intervals... More about our weather records

Advertising

Baltimore weather history for previous 24 hours

 ConditionsComfort  
Time TempWeatherWind HumidityBarometerVisibility
2:54 PM
Sep 20
78 °FScattered clouds.3 mph37%30.14 "Hg10 mi
1:54 PM77 °FScattered clouds.7 mph54%30.16 "Hg10 mi
8:54 AM66 °FScattered clouds.3 mph81%30.26 "Hg6 mi
7:54 AM63 °FFog.6 mph87%30.25 "Hg5 mi
6:54 AM61 °FFog.No wind90%30.26 "Hg4 mi
5:54 AM62 °FPassing clouds.No wind93%30.25 "Hg8 mi
4:54 AM63 °FPartly cloudy.No wind90%30.26 "Hg8 mi
3:54 AM63 °FMostly cloudy.3 mph90%30.26 "Hg9 mi
2:54 AM63 °FOvercast.No wind90%30.27 "Hg9 mi
1:54 AM63 °FOvercast.7 mph90%30.28 "Hg8 mi
12:54 AM63 °FMostly cloudy.7 mph87%30.30 "Hg9 mi
11:54 PM
Sep 19
62 °FPartly cloudy.7 mph86%30.30 "Hg10 mi
10:54 PM64 °FMostly cloudy.6 mph81%30.31 "Hg10 mi
9:54 PM65 °FPartly cloudy.10 mph78%30.30 "Hg10 mi
8:54 PM66 °FPartly cloudy.8 mph73%30.30 "Hg10 mi
7:54 PM67 °FPartly sunny.10 mph68%30.28 "Hg10 mi
6:54 PM69 °FBroken clouds.10 mph66%30.26 "Hg10 mi
5:54 PM70 °FPartly sunny.10 mph64%30.26 "Hg10 mi
4:54 PM73 °FPartly sunny.13 mph57%30.25 "Hg10 mi
Weather by CustomWeather, © 2014

See weather overviewHow to use our weather pages